This is the latest recevied weather packets stored in our database for station/object W4JCW. If no packets are shown the sender has not sent any weather packets the latest 10 day(s).
| Time | Temp. | Humidity | Pressure | Rain* | Wind** | Luminosity | Snow |
|---|---|---|---|---|---|---|---|
| 1778007963 | 28.33° C | 39% | 1014.4 hPa | 0 mm | - | 929 W/m² | - |
| 1778007658 | 28.33° C | 40% | 1014.3 hPa | 0 mm | - | 924 W/m² | - |
| 1778007355 | 27.78° C | 40% | 1014.5 hPa | 0 mm | - | 962 W/m² | - |
| 1778007051 | 27.78° C | 40% | 1014.6 hPa | 0 mm | - | 1031 W/m² | - |
| 1778006748 | 27.78° C | 40% | 1014.6 hPa | 0 mm | - | 744 W/m² | - |
| 1778006445 | 27.22° C | 42% | 1014.5 hPa | 0 mm | - | 972 W/m² | - |
| 1778006142 | 27.22° C | 41% | 1014.7 hPa | 0 mm | - | 989 W/m² | - |
| 1778005839 | 27.78° C | 41% | 1014.7 hPa | 0 mm | - | 1007 W/m² | - |
| 1778005535 | 27.22° C | 41% | 1014.8 hPa | 0 mm | - | 996 W/m² | - |
| 1778005232 | 27.78° C | 41% | 1014.5 hPa | 0 mm | - | 996 W/m² | - |
| 1778004929 | 27.22° C | 43% | 1014.7 hPa | 0 mm | - | 1068 W/m² | - |
| 1778004627 | 26.67° C | 45% | 1014.6 hPa | 0 mm | - | 1086 W/m² | - |
| 1778004322 | 26.11° C | 44% | 1014.5 hPa | 0 mm | - | 447 W/m² | - |
| 1778004020 | 26.67° C | 43% | 1014.5 hPa | 0 mm | - | 378 W/m² | - |
| 1778003715 | 27.22° C | 43% | 1014.6 hPa | 0 mm | - | 591 W/m² | - |
| 1778003412 | 26.67° C | 43% | 1014.8 hPa | 0 mm | - | 1087 W/m² | - |
| 1778003109 | 26.67° C | 44% | 1014.4 hPa | 0 mm | - | 1006 W/m² | - |
| 1778002805 | 26.67° C | 44% | 1014.7 hPa | 0 mm | - | 592 W/m² | - |
| 1778002501 | 26.11° C | 44% | 1014.9 hPa | 0 mm | - | 785 W/m² | - |
| 1778002198 | 25.56° C | 45% | 1014.9 hPa | 0 mm | - | 926 W/m² | - |
| 1778001897 | 25.56° C | 49% | 1014.8 hPa | 0 mm | - | 478 W/m² | - |
| 1778001597 | 25.56° C | 49% | 1015 hPa | 0 mm | - | 264 W/m² | - |
| 1778001293 | 25.56° C | 48% | 1015.1 hPa | 0 mm | - | 205 W/m² | - |
| 1778000990 | 26.11° C | 46% | 1015.2 hPa | 0 mm | - | 169 W/m² | - |
| 1778000687 | 25.56° C | 48% | 1015.2 hPa | 0 mm | - | 166 W/m² | - |
* Rain latest hour (hover to see other rain measurements)
** Current wind speed in m/s (hover to see current wind gust speed)